Flag for Canada Weather past 2 weeks in Kings County, Nova Scotia, Canada

41 °F

Passing clouds.

Feels Like: 41 °F
Forecast: 39 / 57 °F
Wind: No wind

Location: Shearwater

Current Time: Oct 9, 2015 at 7:45:01 AM

Latest Report: Oct 9, 2015 at 7:00 AM

Visibility: 15 mi

Pressure: 30.09 "Hg

Humidity: 93%

Dew point: 39 °F

Location of Kings CountyLocation

Historic Weather in Kings County — Graph


Kings County temperature yesterday

Maximum temperature yesterday: 59 °F (at 3:00 PM)
Minimum temperature yesterday: 46 °F (at 11:00 PM)
Average temperature yesterday: 53 °F

Past Weeks' High & Low Weather Summary

High75 °F (Sep 29, 2:00 PM)100% (Sep 25, 7:00 AM)30.45 "Hg (Sep 25, 7:00 AM)
Low41 °F (Oct 9, 6:00 AM)39% (Sep 26, 2:00 PM)29.77 "Hg (Oct 7, 5:00 PM)
Average59 °F78%30.13 "Hg
* Reported Sep 24 7:00 AM — Oct 9 6:00 AM, Kings County, Weather by CustomWeather, © 2015

Note: Actual official high and low records may vary slightly from our data, if they occured in-between our weather recording intervals... More about our weather records


Kings County weather history for previous 24 hours

Time TempWeatherWind HumidityBarometerVisibility
6:00 AM
Fri, Oct 9
41 °FPassing clouds.2 mph93%30.09 "Hg12 mi
12:00 AM46 °FClear.8 mph76%30.10 "Hg15 mi
11:00 PM
Thu, Oct 8
46 °FClear.8 mph76%30.10 "Hg15 mi
10:00 PM48 °FClear.6 mph71%30.09 "Hg15 mi
9:00 PM50 °FPassing clouds.8 mph62%30.08 "Hg15 mi
8:00 PM50 °FPassing clouds.8 mph62%30.07 "Hg15 mi
7:00 PM52 °FPartly sunny.7 mph58%30.05 "Hg15 mi
6:00 PM54 °FPartly sunny.12 mph58%30.02 "Hg15 mi
5:00 PM57 °FScattered clouds.9 mph48%30.00 "Hg15 mi
4:00 PM57 °FPassing clouds.16 mph44%29.99 "Hg15 mi
3:00 PM59 °FPassing clouds.13 mph48%29.97 "Hg15 mi
2:00 PM57 °FPassing clouds.16 mph48%29.98 "Hg15 mi
1:00 PM57 °FPassing clouds.14 mph51%29.97 "Hg15 mi
12:00 PM55 °FPassing clouds.17 mph55%29.97 "Hg15 mi
11:00 AM54 °FPassing clouds.17 mph58%29.97 "Hg15 mi
10:00 AM54 °FPassing clouds.17 mph67%29.96 "Hg15 mi
9:00 AM52 °FPassing clouds.15 mph82%29.94 "Hg15 mi
8:00 AM50 °FPassing clouds.7 mph88%29.91 "Hg15 mi
7:00 AM50 °FPassing clouds.10 mph94%29.88 "Hg15 mi
Weather by CustomWeather, © 2015

See weather overviewHow to use our weather pages